Location: Acton
(51.4942°N, 0.2232°W)
Time: 10:07:35
(UTC+00:00)

Daily predictions for brighter satellites

Satellite Brightness Start Highest point End
(mag) Time Altitude Azimuth Time Altitude Azimuth Time Altitude Azimuth
Cosmos 2016 Rocket 4.4 18:31:43 10° SSW 18:38:01 71° WNW 18:44:16 10° N
CREW DRAGON DEMO-1 DEB 2.8 18:41:41 10° W 18:44:44 88° SSE 18:47:46 10° E
USA 102 3.8 18:40:19 10° SSE 18:46:52 80° ENE 18:49:26 10° NNW
USA 229 DEB 4.4 18:42:56 10° WSW 18:49:25 57° NW 18:56:22 10° NE
USA 229 4.4 18:43:02 10° WSW 18:49:31 57° NW 18:56:28 10° NE
Cosmos 1782 Rocket 3.6 18:45:27 10° S 18:49:46 57° E 18:54:09 10° NNE
Cosmos 1975 2.8 18:46:45 10° S 18:50:48 71° E 18:54:53 10° NNE
Cosmos 1025 Rocket 3.8 18:46:54 10° N 18:50:51 32° ENE 18:54:49 10° SE
NOSS 3-2 (C) 4.4 18:44:07 10° NW 18:50:58 49° NNE 18:58:44 10° ESE
Cosmos 2233 Rocket 4.0 18:44:47 10° S 18:51:01 84° E 18:57:15 10° N
CZ-4 R/B 2.5 18:47:36 10° S 18:51:43 52° W 18:55:51 10° NNW
Cosmos 1908 Rocket 3.7 18:47:36 10° SSW 18:51:58 81° W 18:56:23 10° N
USA 186 2.6 18:49:43 10° SE 18:52:30 30° ENE 18:55:24 10° N
Meteor 2-11 Rocket 4.4 18:47:29 10° S 18:53:37 73° E 18:59:46 10° NNE
Nadezhda 4 Rocket 4.5 18:51:48 10° N 18:57:30 38° ENE 19:03:09 10° SE
Cosmos 2082 Rocket 4.3 18:57:11 10° N 18:59:55 14° NNE 19:02:40 10° NE
NOSS 3-1 (A) 4.1 18:55:56 10° WSW 19:01:34 57° NW 19:08:17 10° NE
Cosmos 1544 3.8 18:58:01 10° SSW 19:01:38 59° WNW 19:05:16 10° N
Cosmos 1937 Rocket 3.5 18:56:36 10° S 19:01:45 60° ESE 19:06:54 10° NNE
OBJECT-B 2.4 19:01:23 13° ESE 19:03:05 18° ENE 19:05:25 10° NNE
MOS 1 Rocket 3.3 18:58:40 10° NNE 19:03:06 51° E 19:07:20 10° S
Cosmos 1842 4.0 19:02:01 10° NNW 19:05:49 57° W 19:09:37 10° S
FREGAT/IRIS 3.3 19:05:32 15° ESE 19:07:04 26° ENE 19:09:20 10° N
Cosmos 1674 4.0 19:04:31 10° NNE 19:07:36 22° ENE 19:09:42 15° ESE
Cosmos 2297 Rocket 4.4 19:04:33 10° W 19:09:13 25° NW 19:13:53 10° NNE
Cosmos 1975 Rocket 3.3 19:06:28 10° NNW 19:10:49 74° W 19:15:07 10° S
COSMO-SKYMED 1 4.5 19:09:17 10° N 19:13:14 34° WNW 19:17:09 10° SW
NOSS 8 (H) 4.1 19:10:23 10° SSW 19:13:26 58° SE 19:16:27 10° NE
NOSS 8 (E) 4.1 19:10:23 10° SW 19:13:32 84° NW 19:16:35 10° NE
In-Cosmos 22 4.1 19:09:30 10° N 19:14:45 59° ENE 19:20:00 10° SSE
NOSS 2-2 (E) 3.5 19:13:59 10° SSW 19:17:18 40° SE 19:21:06 10° NE
Cosmos 1707 2.6 19:16:30 10° N 19:20:22 81° E 19:24:11 10° SSE
Resurs 01 Rocket 2.8 19:19:17 17° ESE 19:21:31 25° ENE 19:25:09 10° N
H-2A R/B 2.5 19:16:55 10° S 19:21:50 63° WSW 19:26:53 10° NNW
ATLAS 2AS CENTAUR R/B 4.5 19:24:48 13° E 19:24:48 13° E 19:26:46 10° ENE
ARGOS 3.3 19:17:38 10° SSE 19:23:00 79° WSW 19:28:25 10° NNW
Lacrosse 4 Rocket 3.8 19:22:05 10° N 19:23:09 11° NNE 19:24:13 10° NE
CZ-2C R/B 3.0 19:18:16 10° NNE 19:23:32 44° E 19:28:51 10° S
SJ-6B 2.7 19:21:47 11° SSE 19:25:15 58° ENE 19:28:58 10° N
NOSS 2-2 (D) 3.6 19:22:29 10° SSW 19:25:46 38° SE 19:29:28 10° NE
Sich 1 Rocket 3.6 19:23:28 10° S 19:27:58 83° E 19:32:33 10° NNE
MOS 1 4.3 19:24:12 10° SSE 19:29:52 72° ENE 19:35:35 10° NNW
Cosmos 1048 Rocket 4.1 19:24:43 10° NNW 19:29:59 62° ENE 19:34:10 16° SE
ATLAS CENTAUR R/B 3.8 19:29:06 10° WNW 19:31:51 18° NNW 19:34:33 10° NNE
CENTAUR R/B 3.3 19:24:15 10° NW 19:31:58 65° NE 19:38:33 19° ESE
ATLAS 3B R/B 3.6 19:31:40 10° NW 19:37:55 38° NNE 19:42:49 17° E
ARIANE 5 R/B 3.9 19:37:43 20° E 19:38:50 22° ENE 19:42:13 10° N
SL-08 RB Rocket 3.9 19:34:47 10° S 19:39:23 74° WSW 19:43:58 10° NNW
Cosmos 2263 Rocket 2.5 19:34:02 10° SW 19:39:35 69° WNW 19:45:12 10° NNE
USA 238 DEB 3.8 19:32:50 10° NW 19:40:02 85° NE 19:45:38 19° SE
USA 238 3.8 19:32:57 10° NW 19:40:08 84° NE 19:45:43 20° SE
ISS -2.5 19:38:41 10° SSW 19:41:14 25° SSE 19:41:14 25° SSE
Abrixas rocket 2.3 19:39:25 10° WSW 19:42:08 42° S 19:42:31 39° SSE
SJ 16-02 3.6 19:39:43 10° WSW 19:43:28 27° NW 19:47:15 10° N
Cosmos 1513 Rocket 4.4 19:37:23 10° S 19:43:41 84° E 19:49:53 10° N
Cosmos 1844 Rocket 3.1 19:41:50 10° S 19:46:54 38° ESE 19:52:01 10° NE
Okean 2 Rocket 3.0 19:43:35 10° S 19:48:05 86° E 19:52:36 10° NNE
Lacrosse 5 rocket 2.4 19:47:27 10° W 19:51:38 46° NNW 19:55:14 15° ENE
Cosmos 1464 Rocket 3.9 19:45:41 10° S 19:51:49 89° W 19:58:03 10° N
Okean 1 Rocket 3.7 19:51:22 30° ESE 19:52:32 36° E 19:56:39 10° NNE
Ariane Rocket 3.4 19:51:04 10° S 19:56:05 65° WSW 20:01:11 10° NNW
Cosmos 1092 Rocket 4.0 19:50:00 10° N 19:56:06 61° ENE 20:00:15 21° SSE
Meteor 1-12 Rocket 4.4 19:53:30 10° SSW 19:59:26 83° WNW 20:05:17 10° NNE
Meteor 1-15 Rocket 4.3 19:54:07 10° S 19:59:35 57° E 20:05:11 10° NNE
Resurs 1-3 3.5 19:57:58 27° SSE 20:00:19 75° ENE 20:04:44 10° N
Cosmos 1300 Rocket 3.7 19:56:42 10° SSW 20:01:06 74° WNW 20:05:34 10° N
Cosmos 494 Rocket 3.9 19:57:45 10° NNW 20:03:02 74° ENE 20:05:36 31° SE
Cosmos 2026 Rocket 4.2 19:57:21 10° N 20:03:36 55° ENE 20:06:56 28° SE
Meteor 2-13 Rocket 4.4 19:58:40 10° N 20:04:52 73° ENE 20:09:01 22° SSE
CZ-2C R/B 4.0 20:00:38 10° NNE 20:04:53 41° E 20:05:30 39° ESE
Cosmos 2298 Rocket 3.9 20:00:18 10° SSW 20:05:35 70° ESE 20:10:55 10° NNE
Cosmos 1833 Rocket 3.7 20:00:44 10° NNW 20:05:49 32° NE 20:07:47 26° E
SPOT 3 Rocket 3.4 20:03:38 25° SSE 20:06:42 79° ENE 20:11:52 10° NNW
NOSS 3-2 (A) 4.2 20:00:55 10° NW 20:08:16 72° SW 20:13:56 22° SSE
MetOp-A 4.4 20:03:47 10° S 20:09:05 66° WSW 20:14:26 10° NNW
NOSS 2-2 (C) 3.1 20:06:42 10° SW 20:10:14 87° NW 20:14:23 10° NE
Cosmos 1536 Rocket 4.2 20:10:30 10° NNW 20:14:51 55° W 20:18:27 15° S
Cosmos 1626 2.4 20:14:33 10° N 20:17:51 48° NE 20:17:51 48° NE
Terra 3.5 20:19:12 18° ENE 20:19:14 18° NE 20:22:28 10° NNE
Cosmos 1892 Rocket 4.1 20:16:07 10° N 20:20:06 40° ENE 20:20:06 40° ENE
CREW DRAGON DEMO-1 DEB 3.3 20:17:21 10° W 20:19:51 56° W 20:19:51 56° W
Cosmos 2279 Rocket 4.5 20:20:51 35° ESE 20:21:36 37° E 20:27:16 10° NNE
USA 186 4.4 20:20:56 10° SW 20:23:17 19° W 20:25:44 10° NW
DMSP B5D2-2 4.3 20:20:37 10° NNE 20:25:56 74° WNW 20:31:12 10° SSW
USA 234 3.3 20:19:57 10° ENE 20:26:22 53° SE 20:32:44 10° SW
Meteor 2-5 Rocket 3.6 20:22:22 10° NNW 20:28:01 88° ENE 20:30:35 35° SSE
Cosmos 2151 Rocket 4.3 20:25:02 10° SSW 20:29:23 53° WNW 20:33:50 10° N
OBJECT-B 2.2 20:34:35 31° WSW 20:35:14 34° W 20:38:15 10° NNW
Cosmos 2150 Rocket 4.2 20:30:21 10° SSW 20:35:45 77° WNW 20:41:15 10° NNE
Cosmos 1805 3.2 20:35:56 81° SW 20:36:05 85° W 20:40:02 10° N
SPOT 5 3.8 20:40:10 36° ENE 20:40:16 36° ENE 20:45:04 10° N
NOSS 3-2 (C) 4.2 20:35:03 10° NW 20:42:25 70° SW 20:46:12 35° SSE
Cosmos 1674 4.1 20:39:41 10° NNW 20:43:15 37° W 20:44:32 28° SW
Meteor 1-22 Rocket 4.2 20:43:03 47° SSE 20:44:40 67° E 20:50:40 10° NNE
Cosmos 2082 Rocket 3.0 20:40:36 10° NNW 20:45:46 36° NE 20:46:33 34° ENE
Cosmos 1125 Rocket 3.4 20:41:08 10° SSW 20:46:28 89° WNW 20:51:50 10° NNE
Okean 1-7 Rocket 4.0 20:42:41 10° N 20:46:41 52° NE 20:46:41 52° NE
Cosmos 1733 4.0 20:52:17 48° N 20:52:17 48° N 20:55:09 10° N
SL-14 R/B 3.6 20:48:12 10° NNW 20:51:36 64° NW 20:51:36 64° NW
COSMOS 2406 3.1 20:47:53 10° NNW 20:53:36 74° ENE 20:54:20 65° ESE
Meteor 1-24 Rocket 3.7 20:49:23 10° NNW 20:54:52 75° W 20:56:22 49° S
CRYOSAT 2 4.2 20:51:55 10° N 20:56:52 86° E 20:57:03 83° SSE
ERS-1 Rocket 3.3 20:57:24 50° NE 20:57:24 50° NE 21:01:58 10° N
Resurs 01 Rocket 2.4 20:56:51 41° SW 20:57:47 48° W 21:02:08 10° NNW
Cosmos 2098 Rocket 4.1 20:55:40 10° N 21:02:55 63° ENE 21:03:50 57° ESE
Lacrosse 4 Rocket 2.8 20:59:22 10° NNW 21:02:11 29° NNE 21:02:11 29° NNE
CZ-2C R/B 4.1 20:58:45 10° N 21:03:46 37° WNW 21:08:49 10° SW
Landsat 7 3.8 21:04:41 80° WSW 21:04:42 80° WSW 21:09:30 10° NNW
Cosmos 2266 Rocket 4.1 20:59:39 10° N 21:05:34 52° ENE 21:05:35 52° ENE
Exosat Rocket 3.7 21:01:39 10° SW 21:07:04 71° WNW 21:12:05 10° NNE
Cosmos 1766 4.2 21:09:00 45° WNW 21:09:00 45° WNW 21:12:33 10° N
Cosmos 1655 Rocket 3.9 21:05:44 10° N 21:12:00 72° ENE 21:12:30 69° ESE
ATLAS CENTAUR R/B 4.1 21:11:01 10° NNW 21:12:08 11° N 21:13:14 10° NNE
ATLAS 2AS CENTAUR R/B 3.0 21:04:42 10° SSW 21:12:24 56° ESE 21:20:01 10° NE
IGS 5A 4.2 21:13:37 52° NW 21:13:37 52° NW 21:17:03 10° NNW
SPOT 1/Viking Rocket 3.5 21:14:25 83° WSW 21:14:27 83° WSW 21:19:40 10° NNW
ARIANE 5 R/B 3.2 21:15:16 52° W 21:15:16 52° W 21:19:16 10° NNW
Cosmos 2278 Rocket 4.0 21:22:33 18° NE 21:22:33 18° NE 21:24:07 10° NE
Cosmos 1844 4.0 21:13:11 10° SW 21:18:51 65° NW 21:24:28 10° NNE
Cosmos 1455 Rocket 4.5 21:23:00 31° NNE 21:23:00 31° NNE 21:25:21 10° NNE
Cosmos 1634 Rocket 4.4 21:19:01 27° SSW 21:22:26 60° WNW 21:28:36 10° N
CENTAUR R/B 3.7 21:15:07 10° NW 21:22:48 50° WSW 21:25:44 37° SSW
Cosmos 2285 Rocket 4.4 21:21:49 10° SW 21:28:02 60° WNW 21:34:21 10° NNE
Spot 2 Rocket 3.9 21:28:19 57° W 21:28:19 57° W 21:33:16 10° NNW
ATLAS 3B R/B 2.5 21:22:29 10° NW 21:29:21 89° SW 21:30:03 75° SE
Cosmos 1844 Rocket 3.6 21:25:22 10° SW 21:30:43 46° NW 21:36:08 10° NNE
Lacrosse 5 rocket 2.7 21:27:13 10° WNW 21:30:50 41° NNW 21:30:50 41° NNW
Cosmos 909 Rocket 3.9 21:40:21 10° NW 21:46:53 85° N 21:46:53 85° N
Cosmos 1833 Rocket 3.1 21:44:32 10° NW 21:49:28 57° W 21:49:28 57° W
Cosmos 2251 Rocket 4.1 21:49:03 10° NNW 21:53:17 56° NW 21:53:17 56° NW
Terra 3.0 21:58:06 41° NNW 21:58:06 41° NNW 22:01:14 10° NNW
USA 234 3.3 22:03:04 10° ENE 22:09:35 74° NNW 22:16:07 10° WSW
SPOT 5 4.3 22:19:24 37° WNW 22:19:24 37° WNW 22:23:16 10° NNW
Cosmos 2082 Rocket 3.3 22:24:39 10° NW 22:28:23 38° WNW 22:28:23 38° WNW
NOSS 3-4 (A) 4.2 22:41:29 49° N 22:41:29 49° N 22:46:38 10° NE
NOSS 3-4 (C) 4.2 22:41:40 48° NNE 22:41:40 48° NNE 22:46:44 10° NE
Lacrosse 4 Rocket 4.3 22:38:00 10° NW 22:38:29 13° NW 22:38:29 13° NW
CZ-4C R/B 4.3 23:02:00 19° NE 23:02:00 19° NE 23:03:45 10° NE
Cosmos 2278 Rocket 3.5 23:04:22 37° NNW 23:04:22 37° NNW 23:08:22 10° NNE
ATLAS 2AS CENTAUR R/B 3.5 22:59:08 28° WSW 23:03:34 58° NW 23:11:14 10° NE
ATLAS 3B R/B 4.4 23:13:56 10° WNW 23:17:17 22° W 23:17:17 22° W
NOSS 3-1 (C) 4.3 23:21:42 10° NW 23:28:38 56° NE 23:28:49 56° NE
USA 234 4.1 23:45:56 10° ENE 23:54:28 39° NW 23:58:39 10° WNW
